TimeAKST,TemperatureF,Dew PointF,Humidity,Sea Level PressureIn,VisibilityMPH,Wind Direction,Wind SpeedMPH,Gust SpeedMPH,PrecipitationIn,Events,Conditions,WindDirDegrees,DateUTC
12:53 AM,-0.0,-5.1,79,29.90,10.0,WNW,10.4,-,N/A,,Scattered Clouds,290,2012-12-11 09:53:00
1:53 AM,-5.1,-9.9,80,29.91,10.0,WNW,5.8,-,N/A,,Scattered Clouds,290,2012-12-11 10:53:00
3:53 AM,-9.0,-11.9,87,29.92,10.0,Calm,Calm,-,N/A,,Scattered Clouds,0,2012-12-11 12:53:00
4:53 AM,-11.0,-16.1,78,29.94,10.0,North,3.5,-,N/A,,Scattered Clouds,350,2012-12-11 13:53:00
5:53 AM,-9.0,-13.0,83,29.94,10.0,Calm,Calm,-,N/A,,Scattered Clouds,0,2012-12-11 14:53:00
6:53 AM,-6.0,-9.9,83,29.94,10.0,Calm,Calm,-,N/A,,Scattered Clouds,0,2012-12-11 15:53:00
7:07 AM,-5.8,-9.4,84,29.94,10.0,NNE,8.1,-,N/A,,Mostly Cloudy,30,2012-12-11 16:07:00
7:53 AM,1.0,-2.9,83,29.91,10.0,NE,4.6,-,N/A,,Mostly Cloudy,50,2012-12-11 16:53:00
8:53 AM,1.9,-2.0,83,29.91,10.0,East,5.8,-,N/A,,Overcast,100,2012-12-11 17:53:00
9:53 AM,3.0,-2.0,80,29.89,10.0,East,6.9,-,N/A,,Overcast,90,2012-12-11 18:53:00
10:53 AM,1.9,-2.9,80,29.87,10.0,ENE,4.6,-,N/A,,Mostly Cloudy,60,2012-12-11 19:53:00
11:53 AM,3.9,-2.9,73,29.83,10.0,NE,12.7,-,N/A,,Overcast,50,2012-12-11 20:53:00
12:53 PM,3.0,-4.0,73,29.82,10.0,NE,12.7,-,0.00,,Overcast,50,2012-12-11 21:53:00
1:53 PM,1.9,-5.1,72,29.79,10.0,NE,10.4,-,N/A,,Mostly Cloudy,50,2012-12-11 22:53:00
2:53 PM,1.0,-6.0,72,29.75,10.0,NE,12.7,-,N/A,,Mostly Cloudy,40,2012-12-11 23:53:00
3:53 PM,1.9,-4.0,76,29.69,10.0,NE,13.8,-,N/A,,Mostly Cloudy,40,2012-12-12 00:53:00
4:53 PM,3.0,-4.0,73,29.65,10.0,NE,13.8,-,N/A,,Overcast,50,2012-12-12 01:53:00
5:53 PM,3.0,-5.1,69,29.57,10.0,NE,18.4,-,N/A,,Scattered Clouds,40,2012-12-12 02:53:00
6:53 PM,3.9,-4.0,70,29.53,10.0,NNE,19.6,-,N/A,,Overcast,30,2012-12-12 03:53:00
7:53 PM,6.1,-5.1,60,29.47,10.0,NE,18.4,26.5,N/A,,Overcast,40,2012-12-12 04:53:00
8:53 PM,8.1,-4.0,58,29.40,10.0,NNE,17.3,21.9,N/A,,Overcast,20,2012-12-12 05:53:00
9:53 PM,9.0,1.9,73,29.36,3.0,NNE,12.7,-,0.00,Snow,Light Snow,20,2012-12-12 06:53:00
10:04 PM,8.6,1.4,73,29.34,2.5,NNE,9.2,-,0.00,Snow,Light Snow,30,2012-12-12 07:04:00
10:49 PM,8.6,5.0,85,29.30,1.2,North,15.0,-,0.02,Snow,Light Snow,360,2012-12-12 07:49:00
10:53 PM,9.0,5.0,84,29.31,1.2,North,13.8,17.3,0.02,Snow,Light Snow,360,2012-12-12 07:53:00
11:15 PM,8.6,5.0,85,29.28,1.5,North,8.1,-,0.01,Snow,Light Snow,360,2012-12-12 08:15:00
11:40 PM,10.4,6.8,85,29.26,1.2,North,10.4,-,0.03,Snow,Light Snow,10,2012-12-12 08:40:00
11:53 PM,10.0,6.1,84,29.26,1.5,NNE,11.5,-,0.03,Snow,Light Snow,20,2012-12-12 08:53:00